Location: Charlotte
(35.2269°N, 80.8433°W)
Time: 12:19:32
(UTC-04:00)

ISS - Visible Passes

Search period start: 23 July 2014 00:00
Search period end: 02 August 2014 00:00
Orbit: 411 x 419 km, 51.6° (Epoch: 23 July)

Date Brightness Start Highest point End Pass type
(mag) Time Alt. Az. Time Alt. Az. Time Alt. Az.
23 Jul -0.5 03:48:38 14° NNW 03:48:38 14° NNW 03:50:19 10° N visible
24 Jul 0.1 03:01:31 13° NNE 03:01:31 13° NNE 03:02:04 10° NNE visible
29 Jul 0.2 05:25:25 10° NNE 05:26:01 10° NNE 05:26:37 10° NNE visible
31 Jul -0.4 05:22:58 10° NNW 05:25:33 20° NNE 05:28:07 10° E visible
01 Aug 0.0 04:34:44 10° N 04:36:33 14° NNE 04:38:21 10° ENE visible
01 Aug -1.6 21:15:08 10° SSE 21:17:09 15° SE 21:17:18 15° SE visible
01 Aug -0.3 22:50:24 10° WSW 22:50:30 11° WSW 22:50:30 11° WSW visible
